Aérodrome :
LOGIN :

S'inscrire | Disclaimer

   EN    FR    IT 

 










Légende :    VFR   VFR Marginal   IFR   IFR Intensif   IFR Très Intensif
Visi : 
Plafond : 
>= 8 km
>= 3000ft
5 à 8 km
1000 à 3000 ft
1500m à 5 km
500 à 1000 ft
800 à 1500m
200 à 500 ft
< 800m
< 200 ft
Symboles :   Orages  Brouillard  Fortes neiges  Fortes précipitations  Vent > 20 kt
SIGMETs :   Divers  Orages  Givrage  Turbulence  Onde Orograph.  Cendres Volcan.






- Altitude de l'aérodrome : 1460 ft


LSMA - Alpnach

DERNIER METAR :
  • 071850Z AUTO 18003KT 150V300 9999NDV SCT055 06/04 Q1021 RMK

METARs EXPIRÉS :
  • 071820Z AUTO VRB02KT 9999NDV BKN055 06/04 Q1021 RMK
  • 071750Z AUTO VRB03KT 9999NDV OVC052 06/04 Q1021 RMK
  • 071720Z AUTO VRB02KT 9999NDV BKN053 BKN060 05/03 Q1021 RMK
  • 071620Z AUTO 18003KT 9999NDV FEW054 SCT063 06/04 Q1020 RMK

Prévision TAF périmée.



MET'MAP, la Météo Aéronautique d'un coup d'oeil ! - Copyright ORBIFLY Décembre 2007 - Disclaimer

ORBIFLY MET'MAP TEAM :

Programmation & Développement : Alexandra Zaïnal
Sur une idée originale de : Baudouin d'Aumeries
Assistance à la programmation : Marc-Olivier Méhu
Soutien technique & logistique : Manuel Goepfert

Contact : metmap@orbifly.com




SOURCES & CREDITS :

   NOAA